PTWTP SBSP-SBRJ

Flight info

Callsign PTWTP
Flight time 0h 37m
Altitude 27000
Route NIBRU UZ171 KEVUN
Aircraft A20N/M-SDE2E3FGHIRWXY/LB1

Departure

Time 2026-05-07 21:24
Airport Congonhas–Deputado Freitas Nobre Airport (SBSP)

Arrival

Time 2026-05-07 22:02
Airport Santos Dumont Airport (SBRJ)
Time Latitude Longitude Altitude Speed Heading
2026-05-07 20:55 -23.62571 -46.65926 2600 ft 0 kts 237°
2026-05-07 21:15 -23.62566 -46.65919 2600 ft 1 kts 237°
2026-05-07 21:15 -23.62562 -46.65912 2600 ft 1 kts 237°
2026-05-07 21:16 -23.62558 -46.65905 2600 ft 1 kts 230°
2026-05-07 21:16 -23.62553 -46.65899 2600 ft 1 kts 205°
2026-05-07 21:16 -23.62546 -46.65896 2600 ft 1 kts 175°
2026-05-07 21:16 -23.62538 -46.65898 2600 ft 0 kts 156°
2026-05-07 21:18 -23.62539 -46.65897 2600 ft 0 kts 156°
2026-05-07 21:19 -23.62562 -46.65883 2601 ft 7 kts 147°
2026-05-07 21:20 -23.62630 -46.65830 2601 ft 16 kts 144°
2026-05-07 21:20 -23.62739 -46.65750 2601 ft 22 kts 148°
2026-05-07 21:20 -23.62876 -46.65657 2601 ft 18 kts 144°
2026-05-07 21:20 -23.62974 -46.65571 2602 ft 19 kts 149°
2026-05-07 21:21 -23.63082 -46.65497 2602 ft 21 kts 148°
2026-05-07 21:21 -23.63118 -46.65474 2602 ft 0 kts 150°
2026-05-07 21:21 -23.63128 -46.65467 2602 ft 6 kts 150°
2026-05-07 21:22 -23.63188 -46.65428 2602 ft 13 kts 147°
2026-05-07 21:22 -23.63294 -46.65353 2602 ft 23 kts 146°
2026-05-07 21:22 -23.63369 -46.65301 2602 ft 12 kts 150°
2026-05-07 21:22 -23.63439 -46.65256 2601 ft 12 kts 148°
2026-05-07 21:23 -23.63492 -46.65212 2600 ft 8 kts 126°
2026-05-07 21:23 -23.63469 -46.65141 2599 ft 14 kts 37°
2026-05-07 21:23 -23.63407 -46.65139 2603 ft 5 kts 335°
2026-05-07 21:23 -23.63403 -46.65141 2603 ft 3 kts 330°
2026-05-07 21:24 -23.63056 -46.65373 2610 ft 109 kts 327°
2026-05-07 21:24 -23.62191 -46.65982 2725 ft 177 kts 329°
2026-05-07 21:24 -23.61074 -46.66725 3481 ft 197 kts 330°
2026-05-07 21:24 -23.59848 -46.67562 4292 ft 219 kts 328°
2026-05-07 21:25 -23.58517 -46.68514 5141 ft 245 kts 328°
2026-05-07 21:25 -23.57005 -46.69597 5990 ft 274 kts 328°
2026-05-07 21:25 -23.55310 -46.70754 6801 ft 300 kts 334°
2026-05-07 21:25 -23.53311 -46.71372 8194 ft 296 kts 355°
2026-05-07 21:26 -23.51316 -46.71174 10183 ft 282 kts 15°
2026-05-07 21:26 -23.49569 -46.70166 11623 ft 294 kts 37°
2026-05-07 21:26 -23.48189 -46.68381 12396 ft 325 kts 59°
2026-05-07 21:26 -23.47482 -46.65949 13201 ft 350 kts 82°
2026-05-07 21:27 -23.47662 -46.63267 14331 ft 362 kts 102°
2026-05-07 21:27 -23.48566 -46.60695 15386 ft 372 kts 111°
2026-05-07 21:27 -23.49542 -46.58054 16433 ft 379 kts 107°
2026-05-07 21:27 -23.50248 -46.55265 17494 ft 385 kts 100°
2026-05-07 21:28 -23.50692 -46.52365 18535 ft 392 kts 95°
2026-05-07 21:28 -23.50975 -46.49378 19389 ft 401 kts 93°
2026-05-07 21:28 -23.51184 -46.46314 20280 ft 409 kts 92°
2026-05-07 21:28 -23.51372 -46.43187 21145 ft 418 kts 93°
2026-05-07 21:29 -23.51560 -46.40030 21958 ft 426 kts 93°
2026-05-07 21:29 -23.51759 -46.36786 22648 ft 433 kts 94°
2026-05-07 21:29 -23.51967 -46.33475 23289 ft 441 kts 94°
2026-05-07 21:29 -23.52181 -46.30113 23897 ft 447 kts 94°
2026-05-07 21:30 -23.52397 -46.26747 24546 ft 450 kts 94°
2026-05-07 21:30 -23.52615 -46.23325 25174 ft 454 kts 95°
2026-05-07 21:30 -23.52835 -46.19881 25772 ft 458 kts 95°
2026-05-07 21:30 -23.53055 -46.16405 26365 ft 462 kts 95°
2026-05-07 21:31 -23.53277 -46.12899 26819 ft 466 kts 95°
2026-05-07 21:31 -23.53499 -46.09370 26956 ft 467 kts 95°
2026-05-07 21:31 -23.53721 -46.05844 26984 ft 467 kts 95°
2026-05-07 21:31 -23.53942 -46.02312 26982 ft 466 kts 95°
2026-05-07 21:32 -23.54162 -45.98779 26984 ft 467 kts 95°
2026-05-07 21:32 -23.54382 -45.95242 26985 ft 467 kts 95°
2026-05-07 21:32 -23.54597 -45.91762 26986 ft 467 kts 95°
2026-05-07 21:32 -23.54814 -45.88235 26987 ft 466 kts 95°
2026-05-07 21:33 -23.55031 -45.84700 26987 ft 467 kts 95°
2026-05-07 21:33 -23.55247 -45.81173 26988 ft 466 kts 95°
2026-05-07 21:33 -23.55461 -45.77646 26989 ft 466 kts 95°
2026-05-07 21:33 -23.55675 -45.74123 26983 ft 466 kts 95°
2026-05-07 21:34 -23.55817 -45.71784 26983 ft 465 kts 95°
2026-05-07 21:34 -23.56101 -45.67072 26988 ft 465 kts 95°
2026-05-07 21:34 -23.56241 -45.64743 26986 ft 465 kts 95°
2026-05-07 21:34 -23.56522 -45.60060 26988 ft 465 kts 95°
2026-05-07 21:35 -23.56661 -45.57729 26987 ft 465 kts 95°
2026-05-07 21:35 -23.56870 -45.54208 26987 ft 465 kts 95°
2026-05-07 21:35 -23.57075 -45.50681 26986 ft 465 kts 94°
2026-05-07 21:35 -23.57040 -45.47152 26986 ft 466 kts 86°
2026-05-07 21:36 -23.56612 -45.43640 26992 ft 466 kts 79°
2026-05-07 21:36 -23.55894 -45.40231 26991 ft 466 kts 77°
2026-05-07 21:36 -23.55156 -45.36782 26995 ft 466 kts 77°
2026-05-07 21:36 -23.54425 -45.33331 26992 ft 466 kts 77°
2026-05-07 21:37 -23.53698 -45.29893 26994 ft 466 kts 77°
2026-05-07 21:37 -23.52970 -45.26453 26989 ft 466 kts 77°
2026-05-07 21:37 -23.52240 -45.23012 26989 ft 466 kts 77°
2026-05-07 21:37 -23.51508 -45.19569 26991 ft 466 kts 77°
2026-05-07 21:38 -23.50775 -45.16126 26989 ft 466 kts 77°
2026-05-07 21:38 -23.50041 -45.12687 26989 ft 466 kts 77°
2026-05-07 21:38 -23.49315 -45.09286 26989 ft 466 kts 77°
2026-05-07 21:38 -23.48578 -45.05835 26986 ft 466 kts 77°
2026-05-07 21:39 -23.47841 -45.02393 26987 ft 466 kts 77°
2026-05-07 21:39 -23.47104 -44.98951 26989 ft 466 kts 77°
2026-05-07 21:39 -23.46366 -44.95509 26989 ft 466 kts 77°
2026-05-07 21:39 -23.45630 -44.92070 26987 ft 466 kts 79°
2026-05-07 21:40 -23.45253 -44.88571 26991 ft 465 kts 86°
2026-05-07 21:40 -23.44846 -44.85122 26981 ft 466 kts 78°
2026-05-07 21:40 -23.43976 -44.81724 26982 ft 466 kts 73°
2026-05-07 21:40 -23.42953 -44.78370 26985 ft 466 kts 71°
2026-05-07 21:41 -23.41829 -44.75054 26979 ft 466 kts 69°
2026-05-07 21:41 -23.40650 -44.71762 26982 ft 466 kts 68°
2026-05-07 21:41 -23.39443 -44.68475 26980 ft 466 kts 68°
2026-05-07 21:41 -23.38228 -44.65192 26977 ft 466 kts 68°
2026-05-07 21:42 -23.37018 -44.61923 26864 ft 465 kts 68°
2026-05-07 21:42 -23.35827 -44.58703 26624 ft 463 kts 68°
2026-05-07 21:42 -23.34627 -44.55458 26372 ft 461 kts 68°
2026-05-07 21:42 -23.33435 -44.52234 26140 ft 459 kts 68°
2026-05-07 21:43 -23.32244 -44.49014 25850 ft 457 kts 68°
2026-05-07 21:43 -23.31052 -44.45793 25149 ft 458 kts 68°
2026-05-07 21:43 -23.29855 -44.42561 24312 ft 459 kts 68°
2026-05-07 21:43 -23.28682 -44.39396 23562 ft 455 kts 68°
2026-05-07 21:44 -23.27502 -44.36215 22717 ft 450 kts 68°
2026-05-07 21:44 -23.26346 -44.33099 22156 ft 437 kts 68°
2026-05-07 21:44 -23.25229 -44.30092 21940 ft 416 kts 68°
2026-05-07 21:44 -23.24180 -44.27266 21684 ft 390 kts 68°
2026-05-07 21:45 -23.23194 -44.24614 21456 ft 367 kts 68°
2026-05-07 21:45 -23.22247 -44.22069 21012 ft 359 kts 67°
2026-05-07 21:45 -23.21313 -44.19559 20548 ft 356 kts 67°
2026-05-07 21:45 -23.20388 -44.17075 20117 ft 352 kts 67°
2026-05-07 21:46 -23.19487 -44.14658 19724 ft 347 kts 67°
2026-05-07 21:46 -23.18586 -44.12243 19331 ft 341 kts 67°
2026-05-07 21:46 -23.17698 -44.09861 18934 ft 337 kts 67°
2026-05-07 21:46 -23.16822 -44.07514 18530 ft 333 kts 67°
2026-05-07 21:47 -23.15956 -44.05195 18135 ft 328 kts 67°
2026-05-07 21:47 -23.15101 -44.02907 17626 ft 325 kts 67°
2026-05-07 21:47 -23.14262 -44.00663 17146 ft 323 kts 67°
2026-05-07 21:47 -23.13475 -43.98385 16656 ft 320 kts 70°
2026-05-07 21:48 -23.12729 -43.96107 16177 ft 318 kts 70°
2026-05-07 21:48 -23.12034 -43.93837 15713 ft 315 kts 70°
2026-05-07 21:48 -23.11298 -43.91599 15262 ft 313 kts 68°
2026-05-07 21:48 -23.10505 -43.89414 14813 ft 310 kts 66°
2026-05-07 21:49 -23.09671 -43.87263 14375 ft 308 kts 65°
2026-05-07 21:49 -23.08819 -43.85143 13940 ft 305 kts 65°
2026-05-07 21:49 -23.07970 -43.83057 13431 ft 304 kts 64°
2026-05-07 21:49 -23.07130 -43.80996 13272 ft 291 kts 64°
2026-05-07 21:50 -23.06332 -43.79042 13119 ft 273 kts 64°
2026-05-07 21:50 -23.05590 -43.77220 12954 ft 255 kts 64°
2026-05-07 21:50 -23.04884 -43.75490 12616 ft 249 kts 64°
2026-05-07 21:50 -23.04182 -43.73773 12276 ft 248 kts 64°
2026-05-07 21:51 -23.03485 -43.72068 11923 ft 247 kts 63°
2026-05-07 21:51 -23.02790 -43.70367 11616 ft 246 kts 63°
2026-05-07 21:51 -23.02097 -43.68673 11292 ft 245 kts 63°
2026-05-07 21:51 -23.01416 -43.67006 10979 ft 244 kts 63°
2026-05-07 21:52 -23.00730 -43.65324 10677 ft 243 kts 63°
2026-05-07 21:52 -23.00050 -43.63658 10392 ft 241 kts 63°
2026-05-07 21:52 -22.99378 -43.62014 10099 ft 240 kts 62°
2026-05-07 21:52 -22.98701 -43.60356 9795 ft 240 kts 62°
2026-05-07 21:53 -22.98025 -43.58704 9486 ft 238 kts 62°
2026-05-07 21:53 -22.97353 -43.57063 9167 ft 238 kts 62°
2026-05-07 21:53 -22.96684 -43.55431 8938 ft 234 kts 61°
2026-05-07 21:53 -22.96041 -43.53852 8842 ft 224 kts 62°
2026-05-07 21:54 -22.95398 -43.52289 8602 ft 232 kts 62°
2026-05-07 21:54 -22.94735 -43.50676 8074 ft 237 kts 62°
2026-05-07 21:54 -22.94039 -43.49020 7477 ft 245 kts 60°
2026-05-07 21:54 -22.93324 -43.47336 6863 ft 246 kts 60°
2026-05-07 21:55 -22.92611 -43.45661 6329 ft 249 kts 60°
2026-05-07 21:55 -22.91883 -43.43956 5717 ft 248 kts 61°
2026-05-07 21:55 -22.91169 -43.42270 5198 ft 242 kts 61°
2026-05-07 21:55 -22.90488 -43.40656 4937 ft 227 kts 60°
2026-05-07 21:56 -22.89860 -43.39162 4822 ft 208 kts 60°
2026-05-07 21:56 -22.89293 -43.37815 4604 ft 188 kts 60°
2026-05-07 21:56 -22.88729 -43.36501 3829 ft 198 kts 61°
2026-05-07 21:56 -22.88159 -43.35145 3259 ft 203 kts 66°
2026-05-07 21:57 -22.87690 -43.33696 2793 ft 204 kts 68°
2026-05-07 21:57 -22.87223 -43.32237 2299 ft 205 kts 69°
2026-05-07 21:57 -22.86773 -43.30831 2128 ft 190 kts 69°
2026-05-07 21:57 -22.86345 -43.29489 1970 ft 187 kts 69°
2026-05-07 21:58 -22.85919 -43.28163 1807 ft 187 kts 69°
2026-05-07 21:58 -22.85547 -43.26820 1722 ft 182 kts 79°
2026-05-07 21:58 -22.85552 -43.25548 1412 ft 161 kts 97°
2026-05-07 21:58 -22.85737 -43.24386 1108 ft 150 kts 98°
2026-05-07 21:59 -22.85894 -43.23355 1021 ft 132 kts 97°
2026-05-07 21:59 -22.86035 -43.22378 1002 ft 130 kts 97°
2026-05-07 21:59 -22.86173 -43.21391 952 ft 132 kts 97°
2026-05-07 21:59 -22.86309 -43.20411 876 ft 130 kts 98°
2026-05-07 22:00 -22.86446 -43.19441 821 ft 132 kts 98°
2026-05-07 22:00 -22.86738 -43.18520 811 ft 131 kts 123°
2026-05-07 22:00 -22.87297 -43.17727 825 ft 132 kts 126°
2026-05-07 22:00 -22.87882 -43.16978 777 ft 132 kts 135°
2026-05-07 22:01 -22.88684 -43.16467 624 ft 137 kts 165°
2026-05-07 22:01 -22.89635 -43.16377 410 ft 135 kts 176°
2026-05-07 22:01 -22.90568 -43.16319 82 ft 134 kts 175°
2026-05-07 22:01 -22.91364 -43.16260 13 ft 63 kts 176°
2026-05-07 22:02 -22.91504 -43.16270 15 ft 0 kts 225°
2026-05-07 22:02 -22.91525 -43.16328 14 ft 14 kts 263°
2026-05-07 22:02 -22.91503 -43.16397 15 ft 13 kts 308°
2026-05-07 22:02 -22.91425 -43.16481 17 ft 19 kts 316°
2026-05-07 22:03 -22.91364 -43.16500 27 ft 9 kts 358°
2026-05-07 22:03 -22.91299 -43.16509 29 ft 5 kts 328°
2026-05-07 22:03 -22.91291 -43.16521 29 ft 2 kts 307°
2026-05-07 22:03 -22.91282 -43.16562 29 ft 0 kts 271°
2026-05-07 22:04 -22.91283 -43.16572 29 ft 2 kts 265°
2026-05-07 22:04 -22.91283 -43.16577 29 ft 0 kts 265°